Preview of NWS' New Version of Forecast
This preview is not operational and should not be used for support decisions.

Regional Weather Roundup (RWR)

Issued by National Weather Service (NWS)

                            
000
ASUS43 KTOP 170059
RWRKS 

WEATHER ROUNDUP FOR KANSAS
NATIONAL WEATHER SERVICE GOODLAND KS
700 PM CST SAT FEB 16 2019

NOTE:  "FAIR" INDICATES FEW OR NO CLOUDS BELOW 12,000 FEET WITH NO
SIGNIFICANT WEATHER AND/OR OBSTRUCTIONS TO VISIBILITY.

KSZ001>006-013>018-027>032-041>047-170200-
NORTHWEST KANSAS
  
CITY           SKY/WX    TMP DP  RH WIND       PRES   REMARKS
GOODLAND       LGT SNOW  23  22  96 W8        29.59R FOG              
HAYS           LGT SNOW  19  18  95 NE7       29.70R FOG              
HILL CITY      CLOUDY    18  16  92 E5        29.69R                  
RUSSELL        CLOUDY    20  20 100 NE5       29.69R FOG              
$$

KSZ061>065-074>080-084>089-170200-
SOUTHWEST KANSAS
  
CITY           SKY/WX    TMP DP  RH WIND       PRES   REMARKS
DODGE CITY     FOG       23  20  88 CALM      29.66R VSB 3/4          
GARDEN CITY    SNOW      21  20  96 NE7       29.62F VSB 1/2          
GREAT BEND     MIX PCPN  22  20  92 NE8       29.70R FOG              
LIBERAL        CLOUDY    25  22  88 N21       29.60R FOG     WCI  11  
$$

KSZ066>073-081>083-090>101-170200-
SOUTHEAST KANSAS
  
CITY           SKY/WX    TMP DP  RH WIND       PRES   REMARKS
CHANUTE        CLOUDY    29  25  85 E9        29.71F FOG              
COFFEYVILLE    CLOUDY    30  29  96 E5        29.69F FOG              
HUTCHINSON     CLOUDY    25  25 100 S7        29.68R FOG              
MEDICINE LODGE   N/A     23  22  96 SE6       29.68R                  
NEWTON         CLOUDY    24  23  96 SE9       29.68R                  
PARSONS        CLOUDY    29  28  96 VRB7      29.71F FOG              
WICHITA INTL   CLOUDY    26  26 100 SE6       29.68R FOG              
WICHITA JABRA  CLOUDY    25  23  92 SE6       29.69R FOG              
WICHITA MCCONL FRZ DRZL  26  25  99 E6        29.68                   
WINFIELD       CLOUDY    27  25  92 N3        29.71R FOG              
$$

KSZ007>012-019>026-033>040-048>060-102>105-170200-
NORTHEAST KANSAS
  
CITY           SKY/WX    TMP DP  RH WIND       PRES   REMARKS
CONCORDIA      CLOUDY    18  17  96 NE6       29.74R FOG              
EMPORIA        CLOUDY    24  20  84 E12       29.70R WCI  13          
LAWRENCE       MIX PCPN  24  15  68 E10       29.75F WCI  14          
MANHATTAN      CLOUDY    24  20  84 NE7       29.74S                  
OLATHE IND     MIX PCPN  24  15  68 E10G17    29.74F WCI  14          
OLATHE EXE     CLOUDY    23  14  68 E9        29.75R                  
SALINA         CLOUDY    23  22  96 E6        29.73R FOG              
TOPEKA BILLARD FLURRIES  24  16  71 E10       29.76R WCI  14          
TOPEKA FORBES  LGT SNOW  25  17  72 E13       29.73R WCI  14          
$$